Погода в Голдыревском

Россия / Пермский край     57°15′47″N   57°02′20″E
темп.,
°C
ветер,
м/с
пор.,
м/с
влажн.,
%
обл.,
%
осадки,
мм/ч
давл.,
гПа
погр.,
м
6 марта, сб
сб623:00−14з479446 0.0 100495
02:00−15зюз45964 0.0 100578
05:00−15юз479737 0.0 1007113
08:00−14юз5109599 0.2 1007300
11:00−11з5989100 0.3 1008672
14:00−10з5783100 0.1 1009889
17:00−11з4685100 0.1 1009737
20:00−16з349274 0.0 101155
7 марта, вс
вс723:00−19зюз339739 0.0 101225
02:00−20юз2210039 0.0 101220
05:00−20юз3310059 0.1 101229
08:00−21ююз3310083 0.0 101129
11:00−16юз239484 0.1 1011227
14:00−13зюз1285100 0.1 1010469
17:00−13ююз0183100 0.1 1008390
20:00−18ююв229258 0.0 100920
8 марта, пн
пн823:00−18юз239771 0.0 100920
02:00−21ююз349937 0.0 100835
05:00−21ююв349937 0.0 100867
08:00−18юв489599 0.0 1005203
11:00−13ю51093100 0.6 1003629
14:00−10ю61190100 0.4 1001730
17:00−6ю61190100 0.7 1001870
20:00−10ююз598746 0.1 1001152
9 марта, вт
вт923:00−10ю4109073 0.1 1002202
02:00−10вюв498581 0.0 999146
05:00−7юв8168890 0.5 994562
08:00−10ююз7148871 1.1 992504
11:00−9юз699283 1.4 993825
14:00−7з91387100 0.3 9971257
17:00−7зсз71189100 0.6 10011093
20:00−10з3695100 0.3 1005154
10 марта, ср
ср1023:00−14сз129799 0.4 100720
02:00−17ссз129892 0.1 100920
05:00−18с229896 0.2 101020
08:00−19с239898 0.1 101058
11:00−18с349499 0.3 1011238
14:00−16ссз3389100 0.1 1011384
17:00−16ссз4592100 0.1 1011417
20:00−19ссз4896100 0.1 1012294